Home   Weather   Valverde   Past weeks
Flag for Spain

Past Weather in Valverde, Canary Islands, Spain — Yesterday and Last 2 Weeks

Now
73 °F

Clear.


Feels Like: 76 °F
Forecast: 69 / 67 °F
Wind: No wind

Location: Hierro / Aeropuerto

Current Time: Jun 17, 2019 at 11:59:58 pm

Latest Report: Jun 17, 2019 at 11:00 pm


Visibility: 10 mi

Pressure: 30.09 "Hg (28.17 "Hg at 571m altitude)

Humidity: 69%

Dew Point: 63 °F

Location of ValverdeLocation

Past Weather in Valverde — Graph

°F

Valverde Temperature Yesterday

Maximum temperature yesterday: 73 °F (at 10:30 am)
Minimum temperature yesterday: 64 °F (at 2:00 am)
Average temperature yesterday: 69 °F

High & Low Weather Summary for the Past Weeks

 TemperatureHumidityPressure
High79 °F (Jun 3, 11:30 am)94% (Jun 12, 8:30 am)30.27 "Hg (Jun 12, 8:30 am)
Low64 °F (Jun 16, 2:00 am)27% (Jun 16, 10:30 am)29.98 "Hg (Jun 12, 6:00 am)
Average71 °F73%30.11 "Hg
* Reported Jun 2 10:00 pm — Jun 17 10:30 pm, Valverde. Weather by CustomWeather, © 2019

Note: Actual official high and low records may vary slightly from our data, if they occured in-between our weather recording intervals... More about our weather records

Advertising

Valverde Weather History for the Previous 24 Hours

Scroll right to see more
 ConditionsComfort  
Time TempWeatherWind HumidityBarometerVisibility
10:30 pm
Mon, Jun 17
73 °FPassing clouds.3 mph74%30.09 "HgN/A
10:00 pm75 °FClear.5 mph69%30.09 "Hg10 mi
9:30 pm75 °FPassing clouds.5 mph69%30.09 "HgN/A
9:00 pm77 °FPassing clouds.3 mph65%30.07 "HgN/A
8:30 pm77 °FPassing clouds.2 mph61%30.07 "HgN/A
8:00 pm75 °FPartly sunny.5 mph74%30.07 "HgN/A
7:30 pm77 °FPartly sunny.6 mph61%30.07 "HgN/A
7:00 pm75 °FPartly sunny.5 mph69%30.07 "HgN/A
6:30 pm75 °FPassing clouds.7 mph74%30.07 "HgN/A
6:00 pm75 °FPassing clouds.7 mph69%30.07 "HgN/A
5:30 pm77 °FPassing clouds.7 mph65%30.07 "HgN/A
5:00 pm75 °FPassing clouds.9 mph69%30.09 "HgN/A
4:30 pm75 °FPassing clouds.8 mph69%30.09 "HgN/A
4:00 pm75 °FPassing clouds.7 mph69%30.09 "HgN/A
3:30 pm73 °FPassing clouds.7 mph74%30.09 "HgN/A
3:00 pm73 °FPassing clouds.7 mph74%30.09 "HgN/A
2:30 pm73 °FPassing clouds.8 mph74%30.09 "HgN/A
2:00 pm73 °FPassing clouds.7 mph74%30.12 "HgN/A
1:30 pm73 °FPassing clouds.8 mph74%30.12 "HgN/A
1:00 pm73 °FPassing clouds.8 mph74%30.12 "HgN/A
12:30 pm73 °FPassing clouds.8 mph74%30.12 "HgN/A
12:00 pm73 °FPassing clouds.8 mph69%30.12 "HgN/A
11:30 am75 °FPassing clouds.7 mph65%30.12 "HgN/A
11:00 am73 °FPassing clouds.5 mph69%30.12 "HgN/A
10:30 am72 °FPassing clouds.3 mph73%30.12 "HgN/A
10:00 am72 °FPassing clouds.3 mph73%30.12 "HgN/A
9:30 am72 °FPassing clouds.5 mph73%30.12 "HgN/A
9:00 am72 °FPassing clouds.5 mph73%30.12 "HgN/A
8:30 am72 °FPassing clouds.6 mph69%30.09 "HgN/A
8:00 am70 °FPassing clouds.3 mph73%30.09 "HgN/A
7:30 am66 °FSunny.6 mph78%30.09 "Hg10 mi
7:00 am66 °FClear.7 mph73%30.09 "Hg10 mi
6:30 am66 °FClear.5 mph73%30.09 "Hg10 mi
6:00 am66 °FClear.No wind68%30.09 "Hg10 mi
5:30 am66 °FClear.2 mph68%30.09 "Hg10 mi
5:00 am66 °FClear.3 mph68%30.12 "Hg10 mi
4:30 am66 °FClear.5 mph68%30.12 "Hg10 mi
3:30 am66 °FClear.6 mph68%30.12 "Hg10 mi
3:00 am68 °FClear.3 mph64%30.12 "Hg10 mi
2:30 am66 °FClear.5 mph73%30.15 "Hg10 mi
2:00 am68 °FClear.No wind64%30.15 "Hg10 mi
1:30 am68 °FClear.5 mph69%30.15 "Hg10 mi
1:00 am68 °FClear.3 mph69%30.18 "Hg10 mi
12:30 am68 °FClear.3 mph69%30.18 "Hg10 mi
12:00 am68 °FClear.3 mph69%30.18 "Hg10 mi
11:30 pm
Sun, Jun 16
68 °FClear.5 mph69%30.18 "Hg10 mi
11:00 pm70 °FClear.No wind64%30.15 "Hg10 mi
Weather by CustomWeather, © 2019

See weather overview